Flag for U.S.A. Weather past 2 weeks in St. Louis, Missouri, U.S.A.

64 °F


Feels Like: 64 °F
Forecast: 54 / 65 °F
Wind: 7 mph from North

Location: Lambert-St. Louis International Airport

Current Time: Oct 9, 2015 at 4:04:01 PM

Latest Report: Oct 9, 2015 at 2:51 PM

Visibility: 10 mi

Pressure: 30.14 "Hg

Humidity: 61%

Dew point: 50 °F

Location of St. LouisLocation

Historic Weather in St. Louis — Graph


St. Louis temperature yesterday

Maximum temperature yesterday: 82 °F (at 2:51 PM)
Minimum temperature yesterday: 60 °F (at 2:51 AM)
Average temperature yesterday: 71 °F

Past Weeks' High & Low Weather Summary

High85 °F (Sep 25, 2:51 PM)90% (Sep 28, 6:51 AM)30.21 "Hg (Sep 28, 6:51 AM)
Low49 °F (Oct 1, 6:51 AM)28% (Sep 25, 3:51 PM)29.88 "Hg (Sep 29, 3:51 PM)
Average66 °F66%30.08 "Hg
* Reported Sep 24 2:51 PM — Oct 9 2:51 PM, St. Louis, Weather by CustomWeather, © 2015

Note: Actual official high and low records may vary slightly from our data, if they occured in-between our weather recording intervals... More about our weather records


St. Louis weather history for previous 24 hours

Time TempWeatherWind HumidityBarometerVisibility
2:51 PM
Fri, Oct 9
64 °FOvercast.7 mph61%30.14 "Hg10 mi
1:51 PM64 °FMore clouds than sun.9 mph61%30.16 "Hg10 mi
12:51 PM63 °FOvercast.7 mph65%30.17 "Hg10 mi
11:59 AM63 °FMostly cloudy.8 mph68%30.20 "Hg10 mi
10:51 AM60 °FMostly cloudy.10 mph72%30.17 "Hg10 mi
9:51 AM59 °FLight rain. More clouds than sun.10 mph75%30.15 "Hg10 mi
8:51 AM59 °FLight rain. More clouds than sun.12 mph72%30.14 "Hg9 mi
7:51 AM61 °FMostly cloudy.14 mph67%30.11 "Hg10 mi
6:51 AM63 °FMostly cloudy.14 mph60%30.09 "Hg10 mi
5:51 AM64 °FMostly cloudy.9 mph61%30.07 "Hg10 mi
4:51 AM65 °FMostly cloudy.8 mph66%30.03 "Hg10 mi
3:51 AM67 °FMostly cloudy.7 mph66%30.00 "Hg10 mi
2:51 AM69 °FMostly cloudy.9 mph70%30.01 "Hg10 mi
1:51 AM70 °FMostly cloudy.8 mph71%29.99 "Hg10 mi
12:51 AM70 °FPassing clouds.5 mph71%29.98 "Hg10 mi
11:51 PM
Thu, Oct 8
72 °FPartly cloudy.7 mph66%29.97 "Hg10 mi
10:51 PM72 °FPassing clouds.7 mph66%29.97 "Hg10 mi
9:51 PM71 °FPassing clouds.6 mph68%29.96 "Hg10 mi
8:51 PM72 °FPassing clouds.6 mph68%29.96 "Hg10 mi
7:51 PM74 °FPassing clouds.3 mph64%29.96 "Hg10 mi
6:51 PM79 °FBroken clouds.3 mph50%29.96 "Hg10 mi
5:51 PM81 °FBroken clouds.6 mph45%29.95 "Hg10 mi
4:51 PM82 °FBroken clouds.6 mph44%29.96 "Hg10 mi
Weather by CustomWeather, © 2015

See weather overviewHow to use our weather pages